Hourly Weather Bolshie Ermaki

Today, 3 August, Tuesday

Time Temperature Precipitation Wind Pressure Humidity
00:00 +17°C° 0 mm 3 mps 735 mmHg 91%
01:00 +16°C° 0 mm 3 mps 735 mmHg 93%
02:00 +16°C° 0 mm 3 mps 735 mmHg 95%
03:00 +16°C° 0 mm 3 mps 736 mmHg 93%
04:00 +16°C° 0 mm 3 mps 736 mmHg 91%
05:00 +16°C° 0 mm 3 mps 736 mmHg 88%
06:00 +17°C° 0 mm 3 mps 737 mmHg 81%
07:00 +18°C° 0 mm 3 mps 737 mmHg 73%
08:00 +19°C° 0 mm 3 mps 738 mmHg 67%
09:00 +20°C° 0 mm 4 mps 738 mmHg 61%
10:00 +21°C° 0 mm 4 mps 738 mmHg 55%
11:00 +22°C° 0 mm 4 mps 738 mmHg 49%
12:00 +22°C° 0 mm 4 mps 738 mmHg 48%
13:00 +22°C° 0 mm 4 mps 738 mmHg 46%
14:00 +23°C° 0 mm 4 mps 738 mmHg 45%
15:00 +22°C° 0 mm 4 mps 739 mmHg 48%
16:00 +22°C° 0 mm 4 mps 739 mmHg 52%
17:00 +21°C° 0 mm 3 mps 739 mmHg 56%
18:00 +20°C° 0 mm 3 mps 739 mmHg 60%
19:00 +19°C° 0 mm 3 mps 739 mmHg 63%
20:00 +18°C° 0 mm 2 mps 739 mmHg 67%
21:00 +17°C° 0 mm 2 mps 740 mmHg 69%
22:00 +17°C° 0 mm 2 mps 740 mmHg 70%
23:00 +16°C° 0 mm 2 mps 740 mmHg 72%

Tomorrow, 4 August, Wednesday

Time Temperature Precipitation Wind Pressure Humidity
00:00 +15°C° 0 mm 2 mps 741 mmHg 77%
01:00 +14°C° 0 mm 2 mps 741 mmHg 81%
02:00 +14°C° 0 mm 2 mps 741 mmHg 86%
03:00 +13°C° 0 mm 2 mps 741 mmHg 88%
04:00 +13°C° 0 mm 2 mps 741 mmHg 89%
05:00 +13°C° 0 mm 1 mps 742 mmHg 91%
06:00 +15°C° 0 mm 1 mps 742 mmHg 83%
07:00 +18°C° 0 mm 1 mps 742 mmHg 74%
08:00 +20°C° 0 mm 1 mps 742 mmHg 65%
09:00 +20°C° 0.6 mm 2 mps 742 mmHg 65%
10:00 +20°C° 0.6 mm 2 mps 743 mmHg 64%
11:00 +21°C° 0.6 mm 3 mps 743 mmHg 63%
12:00 +22°C° 0.2 mm 3 mps 743 mmHg 56%
13:00 +24°C° 0.2 mm 3 mps 742 mmHg 49%
14:00 +25°C° 0.2 mm 3 mps 742 mmHg 42%
15:00 +24°C° 0 mm 2 mps 742 mmHg 48%
16:00 +23°C° 0 mm 2 mps 742 mmHg 54%
17:00 +22°C° 0 mm 1 mps 742 mmHg 60%
18:00 +21°C° 0 mm 1 mps 742 mmHg 64%
19:00 +20°C° 0 mm 1 mps 743 mmHg 68%
20:00 +17°C° 0 mm 0 mps 743 mmHg 72%
21:00 +16°C° 0.1 mm 0 mps 743 mmHg 74%
22:00 +16°C° 0.1 mm 0 mps 743 mmHg 76%
23:00 +15°C° 0.1 mm 0 mps 743 mmHg 78%

Day after tomorrow, 5 August, Thursday

Time Temperature Precipitation Wind Pressure Humidity
00:00 +15°C° 0 mm 0 mps 743 mmHg 81%
01:00 +14°C° 0 mm 0 mps 743 mmHg 83%
02:00 +13°C° 0 mm 0 mps 743 mmHg 86%
03:00 +14°C° 0.1 mm 1 mps 743 mmHg 88%
04:00 +14°C° 0.1 mm 1 mps 743 mmHg 89%
05:00 +14°C° 0.1 mm 1 mps 743 mmHg 91%
06:00 +15°C° 0.4 mm 1 mps 743 mmHg 91%
07:00 +15°C° 0.4 mm 1 mps 743 mmHg 92%
08:00 +15°C° 0.4 mm 1 mps 743 mmHg 93%
09:00 +15°C° 0.9 mm 1 mps 743 mmHg 94%
10:00 +15°C° 0.9 mm 2 mps 742 mmHg 95%
11:00 +15°C° 0.9 mm 2 mps 742 mmHg 96%
12:00 +15°C° 0.4 mm 2 mps 742 mmHg 94%
13:00 +14°C° 0.4 mm 3 mps 742 mmHg 93%
14:00 +16°C° 0.4 mm 3 mps 742 mmHg 92%
15:00 +17°C° 0 mm 3 mps 741 mmHg 87%
16:00 +18°C° 0 mm 2 mps 741 mmHg 82%
17:00 +19°C° 0 mm 2 mps 741 mmHg 77%
18:00 +18°C° 0.4 mm 2 mps 741 mmHg 84%
19:00 +17°C° 0.4 mm 2 mps 740 mmHg 90%
20:00 +16°C° 0.4 mm 2 mps 740 mmHg 96%
21:00 +16°C° 1.3 mm 2 mps 740 mmHg 97%
22:00 +16°C° 1.3 mm 2 mps 740 mmHg 98%
23:00 +16°C° 1.3 mm 2 mps 740 mmHg 99%

6 August, Friday

Time Temperature Precipitation Wind Pressure Humidity
00:00 +16°C° 0.6 mm 2 mps 740 mmHg 98%
01:00 +16°C° 0.6 mm 2 mps 739 mmHg 98%
02:00 +16°C° 0.6 mm 2 mps 739 mmHg 97%
03:00 +16°C° 0 mm 2 mps 739 mmHg 97%
04:00 +16°C° 0 mm 2 mps 739 mmHg 97%
05:00 +15°C° 0 mm 2 mps 739 mmHg 96%
06:00 +15°C° 0.6 mm 2 mps 739 mmHg 96%
07:00 +14°C° 0.6 mm 3 mps 738 mmHg 97%
08:00 +14°C° 0.6 mm 3 mps 738 mmHg 97%
09:00 +16°C° 0.4 mm 3 mps 738 mmHg 96%
10:00 +17°C° 0.4 mm 3 mps 738 mmHg 96%
11:00 +17°C° 0.4 mm 3 mps 738 mmHg 95%
12:00 +17°C° 0.3 mm 3 mps 738 mmHg 95%
13:00 +17°C° 0.3 mm 4 mps 738 mmHg 94%
14:00 +17°C° 0.3 mm 4 mps 738 mmHg 94%
15:00 +18°C° 0.1 mm 3 mps 737 mmHg 91%
16:00 +19°C° 0.1 mm 3 mps 737 mmHg 89%
17:00 +20°C° 0.1 mm 3 mps 737 mmHg 86%
18:00 +19°C° 2.6 mm 3 mps 737 mmHg 90%
19:00 +18°C° 2.6 mm 3 mps 737 mmHg 94%
20:00 +17°C° 2.6 mm 3 mps 737 mmHg 98%
21:00 +17°C° 1.1 mm 3 mps 737 mmHg 97%
22:00 +17°C° 1.1 mm 4 mps 737 mmHg 97%
23:00 +17°C° 1.1 mm 4 mps 737 mmHg 96%

7 August, Saturday

Time Temperature Precipitation Wind Pressure Humidity
00:00 +16°C° 0.1 mm 3 mps 737 mmHg 97%
01:00 +16°C° 0.1 mm 3 mps 737 mmHg 97%
02:00 +16°C° 0.1 mm 3 mps 737 mmHg 97%
03:00 +16°C° 0 mm 2 mps 737 mmHg 98%
04:00 +15°C° 0 mm 2 mps 737 mmHg 98%
05:00 +15°C° 0 mm 2 mps 737 mmHg 98%
06:00 +18°C° 0 mm 1 mps 737 mmHg 94%
07:00 +19°C° 0 mm 1 mps 737 mmHg 90%
08:00 +21°C° 0 mm 1 mps 737 mmHg 85%
09:00 +22°C° 0.2 mm 1 mps 738 mmHg 83%
10:00 +23°C° 0.2 mm 2 mps 738 mmHg 81%
11:00 +23°C° 0.2 mm 2 mps 738 mmHg 79%
12:00 +24°C° 0 mm 2 mps 738 mmHg 77%
13:00 +25°C° 0 mm 2 mps 738 mmHg 75%
14:00 +26°C° 0 mm 2 mps 738 mmHg 73%
15:00 +26°C° 0.2 mm 2 mps 738 mmHg 74%
16:00 +25°C° 0.2 mm 2 mps 737 mmHg 75%
17:00 +25°C° 0.2 mm 2 mps 737 mmHg 77%
18:00 +24°C° 0 mm 2 mps 738 mmHg 80%
19:00 +23°C° 0 mm 2 mps 738 mmHg 84%
20:00 +21°C° 0 mm 1 mps 738 mmHg 87%
21:00 +21°C° 0 mm 1 mps 738 mmHg 89%
22:00 +20°C° 0 mm 1 mps 738 mmHg 90%
23:00 +19°C° 0 mm 1 mps 738 mmHg 92%

8 August, Sunday

Time Temperature Precipitation Wind Pressure Humidity
00:00 +19°C° 0.1 mm 1 mps 738 mmHg 93%
01:00 +19°C° 0.1 mm 1 mps 738 mmHg 93%
02:00 +19°C° 0.1 mm 1 mps 738 mmHg 94%
03:00 +19°C° 0 mm 1 mps 738 mmHg 94%
04:00 +19°C° 0 mm 1 mps 738 mmHg 94%
05:00 +17°C° 0 mm 0 mps 739 mmHg 94%
06:00 +20°C° 0.2 mm 1 mps 739 mmHg 91%
07:00 +22°C° 0.2 mm 1 mps 739 mmHg 88%
08:00 +23°C° 0.2 mm 1 mps 739 mmHg 85%
09:00 +23°C° 0.2 mm 1 mps 740 mmHg 84%
10:00 +23°C° 0.2 mm 1 mps 740 mmHg 84%
11:00 +23°C° 0.2 mm 1 mps 741 mmHg 84%
12:00 +23°C° 0.7 mm 1 mps 741 mmHg 87%
13:00 +21°C° 0.7 mm 2 mps 741 mmHg 90%
14:00 +21°C° 0.7 mm 2 mps 741 mmHg 92%
15:00 +21°C° 0.3 mm 2 mps 742 mmHg 91%
16:00 +21°C° 0.3 mm 2 mps 742 mmHg 90%
17:00 +21°C° 0.3 mm 2 mps 742 mmHg 88%
18:00 +21°C° 0 mm 1 mps 742 mmHg 90%
19:00 +20°C° 0 mm 1 mps 743 mmHg 92%
20:00 +19°C° 0 mm 1 mps 743 mmHg 93%
21:00 +19°C° 0 mm 1 mps 743 mmHg 93%
22:00 +19°C° 0 mm 1 mps 743 mmHg 93%
23:00 +18°C° 0 mm 1 mps 743 mmHg 93%
Show more

We Need Your Consent

Meteoprog and our Service Providers may store and access personal data such as cookies, device identifiers or other similar technologies on your device and process such data to personalise content and ads, as well as provide social media features and to analyse the traffic.

  • Store and/or access information on your device

    Cookies, device identifiers or other information can be stored or accessed on your device for the purposes indicated above.

  • Personalised ads and content, ad and content measurement, audience insights, and products development

    Ads and content can be personalised based on a profile. More data can be added to better personalise ads and content. Ad and content performance can be measured. Insights about the audience who saw the ads and content can be derived. Such data can be used to develop or improve user’s experience, systems and software.

By clicking ‘I Agree’ you will allow the use of indicated cookies, device identifiers, web beacons or other similar technologies. Your settings can be changed in the browser on your device.

For certain purposes, legitimate interests may be relied on, rather than consent. You can read more about this in our Privacy and Cookie Policy.